Location: Killam
(52.7910°N, 111.8608°W)
Time: 11:22:03
(UTC+00:00)

CUBEBUG 2 - Pass Details

Date: 15 March 2026
Orbit: 548 x 627 km, 97.9° (Epoch: 13 April)

Event Time Altitude Azimuth Distance (km) Brightness Sun altitude
Rises 11:33:14 0° 3° (N) 2,887 ? -19.7°
Reaches altitude 10° 11:36:02 10° 343° (NNW) 1,991 ? -19.3°
Enters shadow 11:38:22 17° 311° (NW) 1,595 ? -19.0°
